TimeCST,TemperatureF,Dew PointF,Humidity,Sea Level PressureIn,VisibilityMPH,Wind Direction,Wind SpeedMPH,Gust SpeedMPH,PrecipitationIn,Events,Conditions,WindDirDegrees,DateUTC
12:58 AM,-6.0,-13.5,70,30.71,10.0,NNW,9.2,-,N/A,,Mostly Cloudy,330,2014-02-05 06:58:00
1:28 AM,-5.8,-13.0,71,30.61,10.0,NW,8.1,-,N/A,,Overcast,320,2014-02-05 07:28:00
1:58 AM,-4.7,-12.5,69,30.72,10.0,NW,5.8,-,N/A,,Overcast,320,2014-02-05 07:58:00
2:58 AM,-3.5,-11.0,70,30.74,10.0,NNW,8.1,-,N/A,,Overcast,330,2014-02-05 08:58:00
3:30 AM,-2.2,-9.4,71,30.64,10.0,NW,6.9,-,N/A,Snow,Light Snow,320,2014-02-05 09:30:00
3:50 AM,-2.2,-9.4,71,30.64,10.0,NNW,6.9,-,N/A,Snow,Light Snow,330,2014-02-05 09:50:00
3:55 AM,-2.2,-9.4,71,30.64,10.0,NNW,8.1,-,N/A,Snow,Light Snow,330,2014-02-05 09:55:00
3:58 AM,-2.7,-9.8,72,30.73,10.0,NNW,9.2,-,0.00,Snow,Light Snow,340,2014-02-05 09:58:00
4:04 AM,-2.2,-9.4,71,30.64,10.0,NNW,10.4,-,N/A,Snow,Light Snow,340,2014-02-05 10:04:00
4:19 AM,-2.2,-9.4,71,30.63,10.0,NNW,9.2,-,N/A,,Overcast,340,2014-02-05 10:19:00
4:58 AM,-2.4,-9.0,73,30.74,10.0,NNW,8.1,-,0.00,,Overcast,330,2014-02-05 10:58:00
5:18 AM,-4.0,-9.4,78,30.63,10.0,NW,6.9,-,N/A,,Scattered Clouds,320,2014-02-05 11:18:00
5:23 AM,-4.0,-11.2,71,30.63,10.0,NNW,8.1,-,N/A,,Scattered Clouds,330,2014-02-05 11:23:00
5:58 AM,-4.9,-11.7,72,30.74,10.0,North,12.7,-,N/A,,Clear,10,2014-02-05 11:58:00
6:13 AM,-5.8,-13.0,71,30.63,10.0,North,10.4,-,N/A,,Mostly Cloudy,350,2014-02-05 12:13:00
6:53 AM,-5.8,-13.0,71,30.63,10.0,NNW,10.4,-,N/A,,Scattered Clouds,340,2014-02-05 12:53:00
6:58 AM,-6.3,-13.2,72,30.74,10.0,NNW,11.5,-,N/A,,Scattered Clouds,340,2014-02-05 12:58:00
7:23 AM,-7.6,-14.8,71,30.63,10.0,NNW,10.4,-,N/A,,Mostly Cloudy,340,2014-02-05 13:23:00
7:37 AM,-5.8,-13.0,71,30.63,10.0,NNW,8.1,-,N/A,Snow,Light Snow,340,2014-02-05 13:37:00
7:55 AM,-5.8,-13.0,71,30.63,10.0,NNW,9.2,-,N/A,,Overcast,340,2014-02-05 13:55:00
7:58 AM,-6.2,-13.2,72,30.75,10.0,NNW,8.1,-,0.00,,Overcast,340,2014-02-05 13:58:00
8:30 AM,-4.0,-13.0,65,30.64,10.0,North,10.4,-,N/A,Snow,Light Snow,350,2014-02-05 14:30:00
8:57 AM,-4.0,-11.2,71,30.64,10.0,North,8.1,-,N/A,,Overcast,350,2014-02-05 14:57:00
8:58 AM,-4.0,-11.2,71,30.76,10.0,North,8.1,-,0.00,,Overcast,350,2014-02-05 14:58:00
9:58 AM,-3.1,-11.2,68,30.75,10.0,North,8.1,-,0.00,,Overcast,350,2014-02-05 15:58:00
10:58 AM,-1.5,-10.5,66,30.75,10.0,NNW,10.4,-,N/A,,Overcast,340,2014-02-05 16:58:00
11:58 AM,0.3,-9.0,65,30.73,10.0,North,12.7,-,N/A,,Overcast,350,2014-02-05 17:58:00
12:33 PM,1.4,-7.6,66,30.62,10.0,North,10.4,-,N/A,Snow,Light Snow,10,2014-02-05 18:33:00
12:58 PM,0.9,-7.2,69,30.71,10.0,North,9.2,-,0.00,Snow,Light Snow,10,2014-02-05 18:58:00
1:09 PM,1.4,-7.6,66,30.61,10.0,North,6.9,-,N/A,,Overcast,10,2014-02-05 19:09:00
1:50 PM,1.4,-7.6,66,30.59,10.0,North,13.8,-,N/A,Snow,Light Snow,350,2014-02-05 19:50:00
1:58 PM,1.4,-8.1,64,30.69,10.0,North,11.5,-,0.00,Snow,Light Snow,350,2014-02-05 19:58:00
2:01 PM,1.4,-7.6,66,30.59,10.0,North,10.4,-,N/A,,Overcast,350,2014-02-05 20:01:00
2:47 PM,1.4,-7.6,66,30.58,10.0,North,10.4,-,N/A,Snow,Light Snow,350,2014-02-05 20:47:00
2:58 PM,1.9,-8.0,63,30.68,10.0,NNW,10.4,-,0.00,Snow,Light Snow,340,2014-02-05 20:58:00
3:22 PM,1.4,-7.6,66,30.57,10.0,NNW,12.7,-,N/A,,Overcast,340,2014-02-05 21:22:00
3:41 PM,1.4,-7.6,66,30.57,9.0,NNW,10.4,-,N/A,Snow,Light Snow,330,2014-02-05 21:41:00
3:58 PM,1.8,-7.6,65,30.67,8.0,NNW,12.7,-,N/A,Snow,Light Snow,330,2014-02-05 21:58:00
4:12 PM,1.4,-7.6,66,30.57,10.0,NNW,10.4,-,N/A,,Mostly Cloudy,330,2014-02-05 22:12:00
4:29 PM,1.4,-7.6,66,30.57,10.0,NNW,11.5,-,N/A,,Scattered Clouds,330,2014-02-05 22:29:00
4:58 PM,0.7,-9.0,64,30.66,10.0,NW,8.1,-,0.00,,Clear,320,2014-02-05 22:58:00
5:58 PM,-0.9,-9.4,67,30.65,10.0,NW,8.1,-,N/A,,Clear,320,2014-02-05 23:58:00
6:58 PM,-2.6,-10.1,70,30.65,10.0,NNW,8.1,-,N/A,,Clear,330,2014-02-06 00:58:00
7:21 PM,-4.0,-11.2,71,30.53,10.0,NW,6.9,-,N/A,,Partly Cloudy,320,2014-02-06 01:21:00
7:27 PM,-4.0,-11.2,71,30.53,10.0,NW,8.1,-,N/A,Snow,Light Snow,310,2014-02-06 01:27:00
7:44 PM,-4.0,-11.2,71,30.53,10.0,NW,9.2,-,N/A,,Partly Cloudy,320,2014-02-06 01:44:00
7:58 PM,-4.4,-12.1,69,30.63,10.0,NW,6.9,-,0.00,Snow,Light Snow,310,2014-02-06 01:58:00
8:16 PM,-5.8,-13.0,71,30.52,10.0,NW,8.1,-,N/A,,Clear,310,2014-02-06 02:16:00
8:58 PM,-6.2,-13.5,70,30.61,10.0,NW,9.2,-,0.00,,Clear,310,2014-02-06 02:58:00
9:58 PM,-6.3,-14.4,68,30.61,10.0,NW,10.4,-,N/A,,Clear,320,2014-02-06 03:58:00
10:58 PM,-8.1,-16.1,68,30.49,10.0,WNW,9.2,-,N/A,,Clear,290,2014-02-06 04:58:00
11:58 PM,-9.0,-16.6,69,30.46,10.0,West,8.1,-,N/A,,Clear,280,2014-02-06 05:58:00